Regional Weather Roundup
Issued by NWS Sioux Falls, SD

Home | Current Version | Previous Version | Graphics & Text | Print | Product List | Glossary Off
Versions: 1 2 3 4 5 6 7 8 9 10 11 12 13 14 15 16 17 18 19 20 21 22 23 24 25 26 27 28 29 30 31 32 33 34 35 36 37 38 39 40 41 42 43 44 45 46 47 48 49 50

000
ASUS43 KFSD 010610
RWRFSD

WEATHER ROUNDUP FOR SE SOUTH DAKOTA/SW MINNESOTA/NW IOWA
NATIONAL WEATHER SERVICE SIOUX FALLS SD
1200 AM CST SUN FEB 01 2015

NOTE: "FAIR" INDICATES FEW OR NO CLOUDS BELOW 12,000 FEET WITH NO
SIGNIFICANT WEATHER AND OR OBSTRUCTIONS TO VISIBILITY.


SDZ038>040-050-052>070-010700-
SOUTHEAST SOUTH DAKOTA

CITY           SKY/WX    TMP DP  RH WIND       PRES   REMARKS
CHAMBERLAIN    LGT SNOW   9   6  87 N14       30.18R WCI  -7
6HR MIN TEMP:   9; 6HR MAX TEMP:  20; 6HR PCP:  0.01;

HURON          CLOUDY    12   2  64 N18       30.22R WCI  -6
6HR MIN TEMP:  12; 6HR MAX TEMP:  21;

MADISON        LGT SNOW  16  16 100 NE21      30.07S WCI  -2
MITCHELL       LGT SNOW  16  13  88 N22       30.15R VSB 3/4 WCI  -2
6HR MIN TEMP:  16; 6HR MAX TEMP:  24; 6HR PCP:  0.02;

SIOUX FALLS    LGT SNOW  23  20  88 NE21G30   30.05S VSB 1   WCI   8
6HR MIN TEMP:  23; 6HR MAX TEMP:  26; 6HR PCP:  0.17;

WINNER         LGT SNOW  12   7  80 N18       30.16R VSB 3/4 WCI  -6
YANKTON          N/A     25  21  86 N17G23    30.02S VSB 3/4 WCI  11
$$

MNZ071-072-080-081-089-090-097-098-010700-
SOUTHWEST MINNESOTA

CITY           SKY/WX    TMP DP  RH WIND       PRES   REMARKS
FAIRMONT       CLOUDY    25  19  80 NE18      30.05R WCI  11
JACKSON        LGT SNOW  25  21  86 NE20      30.04S WCI  11
LUVERNE        LGT SNOW  27  21  80 NE16G26   30.04S WCI  14
MARSHALL       CLOUDY    21  10  63 NE17      30.15S WCI   7
6HR MIN TEMP:  21; 6HR MAX TEMP:  25;

MONTEVIDEO     CLOUDY    19  10  68 E15       30.22R WCI   5
PIPESTONE      LGT SNOW  19  18  93 NE13      30.06S WCI   7
REDWOOD FALLS  CLOUDY    24  10  55 NE10G23   30.15R WCI  14
TRACY          CLOUDY    24  16  74 NE15      30.11S WCI  11
WINDOM         LGT SNOW  23  21  93 NE16G23   30.07S WCI  10
WORTHINGTON    CLOUDY    28  19  69 NE23      30.04S WCI  14
$$

IAZ001>003-012>014-020>022-031-032-NEZ013-014-SDZ071-010700-
NORTHWEST IOWA

CITY           SKY/WX    TMP DP  RH WIND       PRES   REMARKS
CHEROKEE       LGT SNOW  27  27  97 NE14G20   29.96S WCI  16
DENISON        LGT SNOW  32  32 100 E7        29.88F VSB 1   WCI  26
ESTHERVILLE    LGT SNOW  23  22  96 NE23      30.02S VSB 3/4 WCI   7
LE MARS        LGT SNOW  27  27 100 NE20G26   29.97S WCI  13
ORANGE CITY    LGT SNOW  27  23  86 NE15G25   29.97S VSB 1   WCI  15
SHELDON        MIX PCPN  25  25 100 NE24G30   29.98F WCI   9
SIOUX CITY     LGT SNOW  30  28  92 NE15G29   29.93S VSB 1   WCI  19
6HR MIN TEMP:  30; 6HR MAX TEMP:  34; 6HR PCP:  0.16;

SPENCER        LGT SNOW  25  22  88 NE22      29.99F FOG     WCI  10
6HR MIN TEMP:  25; 6HR MAX TEMP:  29; 6HR PCP: TRACE;

STORM LAKE     LGT SNOW  28  27  93 NE24G30   29.93F WCI  14
$$

ABBREVIATIONS USED IN REMARKS
   TC - TEMPERATURE IN CELSIUS
  WCI - WIND CHILL INDEX
   HX - HEAT INDEX
  VSB - VISIBILITY



USA.gov is the U.S. government's official web portal to all federal, state and local government web resources and services.